TimeCDT,TemperatureF,Dew PointF,Humidity,Sea Level PressureIn,VisibilityMPH,Wind Direction,Wind SpeedMPH,Gust SpeedMPH,PrecipitationIn,Events,Conditions,WindDirDegrees,DateUTC
12:52 AM,75.9,71.1,85,29.79,9.0,South,3.5,-,N/A,,Clear,170,2013-09-01 05:52:00
1:52 AM,75.9,71.1,85,29.79,9.0,South,5.8,-,N/A,,Clear,180,2013-09-01 06:52:00
2:52 AM,77.0,71.1,82,29.78,9.0,South,8.1,-,N/A,,Clear,180,2013-09-01 07:52:00
3:52 AM,75.9,71.1,85,29.79,10.0,South,4.6,-,N/A,,Partly Cloudy,170,2013-09-01 08:52:00
4:52 AM,75.9,71.1,85,29.79,10.0,SSE,3.5,-,N/A,,Partly Cloudy,160,2013-09-01 09:52:00
5:52 AM,75.9,70.0,82,29.79,9.0,Calm,Calm,-,N/A,,Clear,0,2013-09-01 10:52:00
6:52 AM,75.9,68.0,76,29.81,10.0,SW,6.9,-,0.00,,Clear,230,2013-09-01 11:52:00
7:32 AM,78.1,68.0,71,29.86,10.0,SSW,3.5,-,N/A,Thunderstorm,Partly Cloudy,200,2013-09-01 12:32:00
7:52 AM,79.0,68.0,69,29.82,10.0,SSW,5.8,-,N/A,,Partly Cloudy,210,2013-09-01 12:52:00
8:44 AM,78.1,68.0,71,29.90,10.0,WNW,11.5,-,N/A,,Mostly Cloudy,300,2013-09-01 13:44:00
8:52 AM,78.1,68.0,71,29.86,10.0,West,12.7,-,N/A,Thunderstorm,Mostly Cloudy,280,2013-09-01 13:52:00
9:21 AM,77.0,63.0,62,29.88,10.0,SW,17.3,26.5,N/A,Thunderstorm,Thunderstorm,230,2013-09-01 14:21:00
9:36 AM,78.1,63.0,60,29.87,10.0,WSW,12.7,-,0.00,Thunderstorm,Scattered Clouds,240,2013-09-01 14:36:00
9:45 AM,77.0,64.0,64,29.88,10.0,South,6.9,-,0.00,,Scattered Clouds,190,2013-09-01 14:45:00
9:52 AM,78.1,64.0,62,29.84,10.0,Variable,4.6,-,0.00,,Mostly Cloudy,0,2013-09-01 14:52:00
10:52 AM,73.9,69.1,85,29.93,4.0,North,19.6,-,0.01,Rain,Heavy Rain,360,2013-09-01 15:52:00
10:59 AM,73.9,70.0,87,29.96,5.0,North,17.3,-,0.02,Rain,Light Rain,10,2013-09-01 15:59:00
11:03 AM,73.9,70.0,87,29.96,6.0,North,16.1,-,0.02,Rain,Light Rain,10,2013-09-01 16:03:00
11:52 AM,77.0,68.0,74,29.92,10.0,NNE,9.2,20.7,0.03,,Mostly Cloudy,30,2013-09-01 16:52:00
12:52 PM,78.1,66.9,68,29.88,10.0,ENE,8.1,-,N/A,,Partly Cloudy,60,2013-09-01 17:52:00
1:52 PM,77.0,68.0,74,29.88,10.0,NNW,3.5,-,N/A,,Clear,330,2013-09-01 18:52:00
2:47 PM,77.0,69.8,78,29.84,10.0,SSW,16.1,-,0.00,,Partly Cloudy,210,2013-09-01 19:47:00
2:52 PM,77.0,70.0,79,29.79,10.0,SSW,17.3,-,0.00,,Clear,210,2013-09-01 19:52:00
3:52 PM,84.9,68.0,57,29.79,10.0,SW,12.7,-,N/A,,Clear,220,2013-09-01 20:52:00
4:52 PM,87.1,64.9,48,29.81,10.0,WSW,8.1,-,N/A,,Clear,250,2013-09-01 21:52:00
5:52 PM,86.0,66.0,51,29.83,10.0,NW,9.2,-,N/A,,Clear,320,2013-09-01 22:52:00
6:52 PM,84.0,69.1,61,29.84,10.0,North,8.1,-,N/A,,Clear,360,2013-09-01 23:52:00
7:52 PM,79.0,70.0,74,29.85,10.0,North,3.5,-,N/A,,Clear,350,2013-09-02 00:52:00
8:52 PM,75.0,70.0,84,29.86,10.0,NNW,3.5,-,N/A,,Clear,340,2013-09-02 01:52:00
9:52 PM,75.0,71.1,87,29.89,10.0,West,3.5,-,N/A,,Clear,280,2013-09-02 02:52:00
10:52 PM,75.9,70.0,82,29.90,10.0,Calm,Calm,-,N/A,,Clear,0,2013-09-02 03:52:00
11:52 PM,73.9,70.0,87,29.90,10.0,Calm,Calm,-,N/A,,Partly Cloudy,0,2013-09-02 04:52:00